Flag for Mongolia Weather past 2 weeks in Ulaanbaatar, Mongolia

Now
45 °F

Partly sunny.


Feels Like: 45 °F
Forecast: 28 / 50 °F
Wind: 1 mph from North

Location: Ulan-Bator

Current Time: Oct 23, 2014 at 12:02:51 PM

Latest Report: Oct 23, 2014 at 11:30 AM


Visibility: 4 mi

Pressure: 29.83 "Hg

Humidity: 39%

Dew point: 21 °F

Location of UlaanbaatarLocation

Historic Weather in Ulaanbaatar — Graph

°F

Ulaanbaatar temperature yesterday

Maximum temperature yesterday: 55 °F (at 3:00 PM)
Minimum temperature yesterday: 18 °F (at 4:00 AM)
Average temperature yesterday: 35 °F

Past Weeks' High & Low Weather Summary

 TemperatureHumidityPressure
High61 °F (Oct 9, 4:00 PM)93% (Oct 10, 12:30 PM)30.54 "Hg (Oct 10, 12:30 PM)
Low7 °F (Oct 12, 6:00 AM)12% (Oct 12, 5:30 PM)29.62 "Hg (Oct 18, 5:30 PM)
Average33 °F53%30.01 "Hg
* Reported Oct 8 11:00 AM — Oct 23 11:00 AM, Ulaanbaatar, Weather by CustomWeather, © 2014

Note: Actual official high and low records may vary slightly from our data, if they occured in-between our weather recording intervals... More about our weather records

Advertising

Ulaanbaatar weather history for previous 24 hours

 ConditionsComfort  
Time TempWeatherWind HumidityBarometerVisibility
11:00 AM
Oct 23
43 °FPartly sunny.No wind46%29.83 "Hg4 mi
10:30 AM39 °FPartly sunny.No wind48%29.86 "Hg4 mi
10:00 AM36 °FPartly sunny.1 mph56%29.86 "Hg5 mi
9:30 AM36 °FPartly sunny.No wind56%29.86 "Hg5 mi
9:00 AM32 °FPartly sunny.No wind64%29.86 "HgN/A
8:30 AM27 °FPartly sunny.1 mph74%29.86 "HgN/A
8:00 AM23 °FClear.No wind80%29.86 "Hg10 mi
7:30 AM23 °FClear.1 mph80%29.83 "Hg10 mi
7:00 AM25 °FPassing clouds.No wind80%29.83 "HgN/A
6:30 AM25 °FPassing clouds.No wind74%29.83 "HgN/A
6:00 AM27 °FPassing clouds.1 mph74%29.83 "HgN/A
5:30 AM28 °FPassing clouds.3 mph74%29.83 "HgN/A
5:00 AM28 °FPassing clouds.1 mph69%29.83 "HgN/A
4:30 AM28 °FPassing clouds.1 mph74%29.86 "HgN/A
4:00 AM27 °FPassing clouds.1 mph74%29.86 "HgN/A
3:30 AM28 °FPassing clouds.1 mph69%29.89 "HgN/A
3:00 AM28 °FClear.No wind69%29.89 "Hg10 mi
2:30 AM27 °FClear.No wind74%29.89 "Hg10 mi
2:00 AM25 °FClear.1 mph74%29.89 "Hg10 mi
1:30 AM27 °FClear.1 mph74%29.89 "Hg10 mi
1:00 AM25 °FClear.1 mph74%29.89 "Hg10 mi
12:30 AM25 °FClear.1 mph74%29.89 "Hg10 mi
12:00 AM25 °FClear.3 mph69%29.89 "Hg10 mi
11:30 PM
Oct 22
25 °FClear.1 mph74%29.92 "Hg10 mi
10:30 PM28 °FClear.1 mph64%29.92 "Hg10 mi
10:00 PM32 °FClear.3 mph60%29.89 "Hg10 mi
9:30 PM30 °FClear.6 mph59%29.92 "Hg10 mi
9:00 PM28 °FClear.6 mph64%29.92 "Hg10 mi
8:30 PM30 °FClear.3 mph59%29.92 "Hg10 mi
8:00 PM34 °FClear.1 mph51%29.92 "Hg10 mi
7:30 PM36 °FClear.3 mph48%29.92 "Hg10 mi
7:00 PM39 °FClear.3 mph42%29.89 "Hg10 mi
6:30 PM45 °FScattered clouds.1 mph34%29.89 "HgN/A
6:00 PM46 °FScattered clouds.3 mph32%29.89 "HgN/A
5:30 PM52 °FScattered clouds.3 mph28%29.89 "HgN/A
5:00 PM54 °FScattered clouds.6 mph26%29.89 "HgN/A
4:30 PM54 °FScattered clouds.6 mph24%29.86 "HgN/A
4:00 PM54 °FScattered clouds.6 mph24%29.86 "HgN/A
3:30 PM54 °FPartly sunny.6 mph24%29.86 "HgN/A
3:00 PM55 °FPartly sunny.3 mph23%29.89 "HgN/A
2:30 PM54 °FPartly sunny.6 mph22%29.89 "HgN/A
2:00 PM54 °FScattered clouds.6 mph24%29.89 "HgN/A
1:30 PM54 °FScattered clouds.8 mph22%29.89 "HgN/A
1:00 PM52 °FPartly sunny.6 mph26%29.89 "Hg5 mi
12:30 PM50 °FPartly sunny.3 mph28%29.92 "Hg5 mi
12:00 PM45 °FPartly sunny.No wind34%29.92 "Hg5 mi
Weather by CustomWeather, © 2014

See weather overviewHow to use our weather pages